COSMOS 2544 [GLONASS-M] (44850 NORAD) Tracking and Keplerian Element Data

This shows tracking and keplerian element data for the satellite.

Feedback or suggestion? Click here.




ElementValue
Catalog44850
NameCOSMOS 2544 [GLONASS-M]
Epoch Orbit241
Epoch Day93.82661044
Epoch Year2020
RAAN149.6743
Inclination64.8354
Eccentricity0.0012373
Argument of Perigee267.9761
Mean Anonmoly340.0518
Mean Motion2.13102378
Decay Rate4.7E-07
L11 44850U 19088A 20093.82661044 .00000047 00000-0 00000+0 0 9992
L22 44850 64.8354 149.6743 0012373 267.9761 340.0518 2.13102378 2416

Live tracking and technical data element details for COSMOS 2544 [GLONASS-M] (NORAD 44850). COSMOS 2544 [GLONASS-M] can be tracked NOW for your location showing map with azimuth and elevation plus other details from your city location.

Track the satellite on the map from your city or location and see movement details for azimuth, elevation, latitude, longitude, range, height, and movement on the map or in text.







IsCatalogInMostPopularTable: catalog: 44850, numindb: 34
Update: records affected: 1



GetName: 44850 COSMOS 2544 [GLONASS-M]

Hit Count: updated at: Sun, 05 Apr 2020 19:11:50 GMT